Location: Juzet
(42.9779°N, 0.7597°E)
Time: 02:58:07
(UTC+00:00)

Cosmos 1515 - Pass Details

Date: 14 July 2020
Orbit: 507 x 515 km, 82.5° (Epoch: 04 August)

Event Time Altitude Azimuth Distance (km) Brightness Sun altitude
Rises 01:09:54 0° 355° (N) 2,638 8.4 -23.6°
Reaches altitude 10° 01:12:04 10° 359° (N) 1,747 7.3 -23.5°
Maximum altitude 01:15:51 59° 80° (E) 598 4.0 -23.2°
Enters shadow 01:15:52 59° 80° (E) 598 4.0 -23.2°
